Flag for Norway Weather past 2 weeks in Farsund, Norway

Now
38 °F

Chilly.


Feels Like: 35 °F
Forecast: 35 / 40 °F
Wind: 5 mph from Southwest

Location: Lista Fyr

Current Time: Mar 3, 2015 at 10:17:40 PM

Latest Report: Mar 3, 2015 at 9:00 PM


Visibility: N/A

Pressure: 29.65 "Hg

Humidity: 86%

Dew point: 35 °F

Location of FarsundLocation

Historic Weather in Farsund — Graph

°F

Farsund temperature yesterday

Maximum temperature yesterday: 43 °F (at 2:00 PM)
Minimum temperature yesterday: 38 °F (at 8:00 AM)
Average temperature yesterday: 41 °F

Past Weeks' High & Low Weather Summary

 TemperatureHumidityPressure
High45 °F (Feb 24, 2:00 PM)98% (Feb 19, 10:00 AM)30.32 "Hg (Feb 19, 10:00 AM)
Low34 °F (Mar 3, 7:00 AM)56% (Feb 22, 12:00 PM)28.82 "Hg (Feb 23, 5:00 AM)
Average41 °F88%29.54 "Hg
* Reported Feb 16 9:00 PM — Mar 3 9:00 PM, Farsund, Weather by CustomWeather, © 2015

Note: Actual official high and low records may vary slightly from our data, if they occured in-between our weather recording intervals... More about our weather records

Advertising

Farsund weather history for previous 24 hours

 ConditionsComfort  
Time TempWeatherWind HumidityBarometerVisibility
9:00 PM
Tue, Mar 3
38 °FChilly.5 mph86%29.65 "HgN/A
8:00 PM37 °FChilly.2 mph86%29.65 "HgN/A
7:00 PM36 °FSprinkles. Overcast.5 mph83%29.64 "Hg9 mi
6:00 PM39 °FChilly.7 mph85%29.62 "HgN/A
5:00 PM39 °FChilly.12 mph80%29.62 "HgN/A
4:00 PM41 °FQuite cool.8 mph76%29.61 "HgN/A
3:00 PM39 °FChilly.12 mph78%29.61 "HgN/A
2:00 PM42 °FQuite cool.5 mph76%29.61 "HgN/A
1:00 PM40 °FScattered clouds.6 mph75%29.60 "Hg12 mi
12:00 PM39 °FChilly.9 mph78%29.59 "HgN/A
11:00 AM39 °FChilly.8 mph80%29.58 "HgN/A
10:00 AM39 °FSprinkles. Overcast.8 mph79%29.57 "Hg9 mi
9:00 AM40 °FChilly.9 mph78%29.56 "HgN/A
8:00 AM40 °FChilly.10 mph79%29.54 "HgN/A
7:00 AM34 °FPassing clouds.1 mph91%29.54 "Hg12 mi
6:00 AM36 °FChilly.2 mph90%29.54 "HgN/A
5:00 AM37 °FChilly.3 mph89%29.50 "HgN/A
4:00 AM36 °FChilly.7 mph88%29.50 "HgN/A
3:00 AM38 °FChilly.5 mph89%29.47 "HgN/A
2:00 AM39 °FChilly.10 mph88%29.47 "HgN/A
1:00 AM40 °FQuite cool.6 mph85%29.44 "HgN/A
12:00 AM40 °FQuite cool.8 mph81%29.44 "HgN/A
11:00 PM
Mon, Mar 2
41 °FQuite cool.8 mph82%29.41 "HgN/A
10:00 PM41 °FQuite cool.9 mph81%29.38 "HgN/A
Weather by CustomWeather, © 2015

See weather overviewHow to use our weather pages